Flag for Germany Weather past 2 weeks in Mosbach, Baden-Württemberg, Germany

Now
58 °F

Passing clouds.


Feels Like: 58 °F
Forecast: 43 / 70 °F
Wind: 2 mph from Northeast

Location: Oehringen


UV Index: 0 (Low)

Visibility: 25 mi


Pressure: 29.64 "Hg

Humidity: 55%

Dew point: 42 °F

Location of MosbachLocation

Historic Weather in Mosbach

°F

Mosbach temperature yesterday

Maximum temperature yesterday: 67 °F (at 5:00 PM)
Minimum temperature yesterday: 47 °F (at 7:00 AM)
Average temperature yesterday: 57 °F

Past Weeks' High & Low Weather Summary

 TemperatureHumidityPressure
High72 °F (Apr 7, 4:00 PM)98% (Apr 19, 4:00 AM)30.42 "Hg (Apr 19, 4:00 AM)
Low32 °F (Apr 16, 7:00 AM)24% (Apr 17, 4:00 PM)29.64 "Hg (Apr 20, 7:00 PM)
Average52 °F64%30.06 "Hg
* Reported Apr 6 10:00 AM — Apr 21 10:00 AM, Mosbach, Weather by CustomWeather, © 2014

Note: Actual official high and low records may vary slightly from our data, if they occured in-between our weather recording intervals... More about our weather records

Advertising

Historic Weather Conditions — Data for Previous 24 hours

 ConditionsComfort  
Time TempWeatherWind HumidityBarometerVisibility
10:00 AM
Apr 21
54 °FScattered clouds.2 mph66%29.65 "Hg17 mi
9:00 AM50 °FScattered clouds.2 mph75%29.66 "Hg11 mi
8:00 AM44 °FScattered clouds.1 mph84%29.68 "Hg9 mi
7:00 AM41 °FSunny.1 mph92%29.69 "Hg9 mi
6:00 AM42 °FClear.1 mph88%29.67 "Hg9 mi
5:00 AM43 °FClear.1 mph85%29.68 "Hg12 mi
4:00 AM45 °FClear.1 mph81%29.69 "Hg15 mi
3:00 AM45 °FClear.1 mph83%29.70 "Hg15 mi
2:00 AM48 °FClear.2 mph76%29.70 "Hg17 mi
1:00 AM49 °FClear.1 mph71%29.72 "Hg19 mi
12:00 AM49 °FPassing clouds.1 mph71%29.72 "Hg22 mi
11:00 PM
Apr 20
53 °FPassing clouds.2 mph63%29.71 "Hg31 mi
10:00 PM55 °FOvercast.1 mph58%29.70 "Hg43 mi
9:00 PM56 °FClear.1 mph53%29.68 "Hg43 mi
8:00 PM60 °FPassing clouds.1 mph50%29.66 "Hg43 mi
7:00 PM65 °FPartly sunny.3 mph38%29.64 "Hg43 mi
6:00 PM66 °FSunny.5 mph38%29.64 "Hg25 mi
5:00 PM67 °FPassing clouds.2 mph41%29.65 "Hg22 mi
4:00 PM63 °FOvercast.2 mph45%29.68 "Hg43 mi
3:00 PM63 °FOvercast.2 mph46%29.69 "Hg28 mi
2:00 PM64 °FOvercast.3 mph44%29.69 "Hg28 mi
1:00 PM63 °FOvercast.2 mph52%29.70 "Hg22 mi
12:00 PM63 °FPassing clouds.2 mph52%29.71 "Hg19 mi
11:00 AM60 °FSunny.3 mph60%29.72 "Hg14 mi
Weather by CustomWeather, © 2014

See weather overview